Regional Weather Roundup
Issued by NWS Nashville, TN

Home | Current Version | Previous Version | Text Only | Print | Product List | Glossary On
Versions: 1 2 3 4 5 6 7 8 9 10 11 12 13 14 15 16 17 18 19 20 21 22 23 24 25 26 27 28 29 30 31 32 33 34 35 36 37 38 39 40 41 42 43 44 45 46 47 48 49 50
000
ASUS44 KOHX 022010
RWROHX
MIDDLE TENNESSEE HOURLY WEATHER ROUNDUP
NATIONAL WEATHER SERVICE NASHVILLE TN
200 PM CST FRI DEC 02 2016

NOTE: "FAIR" INDICATES FEW OR NO CLOUDS BELOW 12,000 FEET WITH
NO SIGNIFICANT WEATHER AND/OR OBSTRUCTIONS TO VISIBILITY.

* THESE REPORTS ARE NOT UNDER NWS QUALITY CONTROL AND MAY NOT
  REPORT WEATHER SUCH AS PRECIPITATION AND FOG.


TNZ005>011-023>034-057-059-062>066-078-080-022100
...NORTHERN MIDDLE TENNESSEE...

CITY           SKY/WX    TMP DP  RH WIND       PRES   REMARKS
CLARKSVILLE    SUNNY     53  29  39 N6        30.24S
CROSSVILLE     SUNNY     52  27  38 W9        30.22R
LEBANON        SUNNY     54  30  40 NW7       30.22S
NASHVILLE      MOSUNNY   58  27  30 NW6       30.23F
PORTLAND       SUNNY     52  30  43 W6G12     30.23S
SMYRNA         SUNNY     58  29  33 N7        30.24S
SPRINGFIELD    SUNNY     52  30  43 VRB5      30.23S
WEST NASHVILLE SUNNY     55  27  33 VRB5      30.23S
$$
TNZ056-058-060-061-075>077-079-093>097-022100
...SOUTHERN MIDDLE TENNESSEE...

CITY           SKY/WX    TMP DP  RH WIND       PRES   REMARKS
COLUMBIA       SUNNY     61  27  27 NW7       30.21S
FAYETTEVILLE   SUNNY     59  30  33 VRB6      30.23S
MCMINNVILLE    SUNNY     57  28  33 NW8       30.22S
MURFREESBORO   SUNNY     57  27  32 VRB6      30.22
SHELBYVILLE    SUNNY     61  30  31 W7        30.24S
TULLAHOMA      SUNNY     57  23  26 W12       30.23S
WINCHESTER     SUNNY     55  28  35 W6        30.23S
$$


...KEY TO REMARKS...
VSB - VISIBILITY IN MILES
WCI - WIND CHILL INDEX
HX  - HEAT INDEX




USA.gov is the U.S. government's official web portal to all federal, state and local government web resources and services.